OBJECT AG, 69010

Orbit data source: Space-Track

You're viewing an Uncataloged Satellite

Recently launched and/or uncataloged satellites may have evolving metadata. Metadata may include but not limited to: Owner, Maufacturer, Bus, Motor, and Mission.

OBJECT AG, 69010 is a satellite in SSO that was launched on Sun, 03 May 2026 UTC launched from the Air Force Western Test Range (AFWTR). Unknown objects in Earth's orbit typically refer to objects detected orbiting the Earth but have not yet been identified or cataloged. These objects could be anything from previously untracked satellites, spent rocket stages, debris from satellite collisions, or even natural meteoroids temporarily captured by Earth's gravity.

Loading next visibility...
Identifier
69010, 2026-100AG
Orbit
SSO
Country
Flag of TBDTBD
Related business
None
Manufacturer
Unknown
Mission
Operational spacecraft
Bus & Motor
Unknown
Mass
Unknown
Launch date (UTC)
2026-05-03 (1 week ago)
Launch vehicle
Unknown
Launch site
Air Force Western Test Range (AFWTR)
Object type
Unknown
Shape & HBR
Unknown
Radar Cross Section
RCS unknown

Expand to show TLE details & history
Last TLE update: 7 hours ago

TLE from 7 hours ago
0 OBJECT AG
1 69010U 26100AG  26130.17854057  .00001765  00000-0  84459-4 0  9997
2 69010  97.4077  28.6826 0006136 145.5149 214.6485 15.20261152  1038
Epoch: 2026-05-10T04:17Z
TLE epoch observation values (Epoch: 2026-05-10T04:17:05.905Z)
Latitude
-0.00005°
Longitude
96.42266°
Altitude
511.619 km
Speed
7.606 km/s
True Right ascension
01h 54m 43s
True Declination
0° 00' 00"
Sunlit
Object was in daylight at epoch
Visualization orbit readout
Latitude
Unknown
Longitude
Unknown
Altitude
Unknown
Speed
Unknown
Apparent Right ascension
Unknown
Apparent Declination
Unknown
Sunlit
N/A
Visualization observer readout
Local Sidereal Time
19:44:05
Azimuth
Unknown
Elevation
Unknown
Doppler factor
Unknown
Orbital elements
Apogee altitude
506.239 km
Perigee altitude
497.796 km
Semi-major axis
6,880.155 km
Eccentricity
0.00061
Inclination
97.4077°
RAAN
28.6826°
Arg. of periapsis
145.5149°
True anomaly
214.60855°
Mean anomaly
214.6485°
Eccentric anomaly
214.62852°
Mean motion
3.80317 °/min
Orbital period
94.66 mins
BSTAR
0.000084459
Loading maneuver chart data...
Computing Atmospheric mass density...
Loading historical data...
Loading historical data...
Loading historical data...
Loading historical data...
Loading historical data...
Loading historical data...
Loading historical data...

Documentation

Showing up to 5 results
|